iso_date,epoch_date,Year,Hour,Min,DOY,POS_DOY,Lat,Lon,BP,Ts,Ta,has_bp,has_ts,has_ta,BuoyID,Buoy_Type,Buoy_Owner,Logistics,Hemisphere
2018-09-11T12:30:14Z,1536669014,2018,12,30,254.521,254.521,81.69884,47.87149,-999.00,6.5,-999.0,no,yes,no,300234011881340,SVP,AWI-USIABP,PACEX2,North
2018-09-11T13:00:28Z,1536670829,2018,13,0,254.542,254.542,81.6434,47.13762,-999.00,-0.45,-999.0,no,yes,no,300234011881340,SVP,AWI-USIABP,PACEX2,North
2018-09-11T13:29:16Z,1536672557,2018,13,30,254.562,254.562,81.58869,46.41599,-999.00,-0.75,-999.0,no,yes,no,300234011881340,SVP,AWI-USIABP,PACEX2,North
2018-09-11T13:59:31Z,1536674371,2018,14,0,254.583,254.583,81.53101,45.70829,-999.00,-1.0,-999.0,no,yes,no,300234011881340,SVP,AWI-USIABP,PACEX2,North
2018-09-11T14:29:45Z,1536676186,2018,14,30,254.604,254.604,81.47265,45.00001,-999.00,-0.95,-999.0,no,yes,no,300234011881340,SVP,AWI-USIABP,PACEX2,North
2018-09-11T15:00:00Z,1536678000,2018,15,0,254.625,254.625,81.41055,44.30061,-999.00,-0.8,-999.0,no,yes,no,300234011881340,SVP,AWI-USIABP,PACEX2,North
2018-09-11T15:30:14Z,1536679814,2018,15,30,254.646,254.646,81.34749,43.6091,-999.00,-0.75,-999.0,no,yes,no,300234011881340,SVP,AWI-USIABP,PACEX2,North
2018-09-11T16:00:28Z,1536681629,2018,16,0,254.667,254.667,81.28517,42.90674,-999.00,-0.65,-999.0,no,yes,no,300234011881340,SVP,AWI-USIABP,PACEX2,North
2018-09-11T16:30:43Z,1536683443,2018,16,30,254.688,254.688,81.2226,42.23178,-999.00,-0.55,-999.0,no,yes,no,300234011881340,SVP,AWI-USIABP,PACEX2,North
2018-09-11T16:59:31Z,1536685171,2018,17,0,254.708,254.708,81.15745,41.55098,-999.00,-0.6,-999.0,no,yes,no,300234011881340,SVP,AWI-USIABP,PACEX2,North
2018-09-11T17:29:45Z,1536686986,2018,17,30,254.729,254.729,81.09104,40.87549,-999.00,-0.55,-999.0,no,yes,no,300234011881340,SVP,AWI-USIABP,PACEX2,North
2018-09-11T18:00:00Z,1536688800,2018,18,0,254.75,254.75,81.02264,40.21902,-999.00,-0.45,-999.0,no,yes,no,300234011881340,SVP,AWI-USIABP,PACEX2,North
2018-09-11T18:30:14Z,1536690614,2018,18,30,254.771,254.771,80.95501,39.58299,-999.00,-0.35,-999.0,no,yes,no,300234011881340,SVP,AWI-USIABP,PACEX2,North
2018-09-11T19:00:28Z,1536692429,2018,19,0,254.792,254.792,80.91945,39.74177,-999.00,-0.65,-999.0,no,yes,no,300234011881340,SVP,AWI-USIABP,PACEX2,North
2018-09-11T19:29:16Z,1536694157,2018,19,30,254.812,254.812,80.98427,40.32712,-999.00,-0.7,-999.0,no,yes,no,300234011881340,SVP,AWI-USIABP,PACEX2,North
2018-09-11T19:59:31Z,1536695971,2018,20,0,254.833,254.833,81.05018,40.93267,-999.00,-0.7,-999.0,no,yes,no,300234011881340,SVP,AWI-USIABP,PACEX2,North
2018-09-11T20:29:45Z,1536697786,2018,20,30,254.854,254.854,81.11513,41.51876,-999.00,-0.95,-999.0,no,yes,no,300234011881340,SVP,AWI-USIABP,PACEX2,North
2018-09-11T21:00:00Z,1536699600,2018,21,0,254.875,254.875,81.18344,42.11264,-999.00,-1.15,-999.0,no,yes,no,300234011881340,SVP,AWI-USIABP,PACEX2,North
2018-09-11T21:30:14Z,1536701414,2018,21,30,254.896,254.896,81.25118,42.7124,-999.00,-1.25,-999.0,no,yes,no,300234011881340,SVP,AWI-USIABP,PACEX2,North
2018-09-11T22:00:28Z,1536703229,2018,22,0,254.917,254.917,81.31571,43.33597,-999.00,-1.3,-999.0,no,yes,no,300234011881340,SVP,AWI-USIABP,PACEX2,North
2018-09-11T22:30:43Z,1536705043,2018,22,30,254.938,254.938,81.37301,44.0017,-999.00,-1.5,-999.0,no,yes,no,300234011881340,SVP,AWI-USIABP,PACEX2,North
2018-09-11T22:59:31Z,1536706771,2018,23,0,254.958,254.958,81.43149,44.68676,-999.00,-1.75,-999.0,no,yes,no,300234011881340,SVP,AWI-USIABP,PACEX2,North
2018-09-11T23:29:45Z,1536708586,2018,23,30,254.979,254.979,81.48821,45.3597,-999.00,-1.85,-999.0,no,yes,no,300234011881340,SVP,AWI-USIABP,PACEX2,North
2018-09-12T00:00:00Z,1536710400,2018,0,0,255.0,255.0,81.54615,46.04633,-999.00,-2.25,-999.0,no,yes,no,300234011881340,SVP,AWI-USIABP,PACEX2,North
2018-09-12T00:30:14Z,1536712214,2018,0,30,255.021,255.021,81.60456,46.74318,-999.00,-2.7,-999.0,no,yes,no,300234011881340,SVP,AWI-USIABP,PACEX2,North
2018-09-12T01:00:28Z,1536714029,2018,1,0,255.042,255.042,81.66276,47.44611,-999.00,-2.95,-999.0,no,yes,no,300234011881340,SVP,AWI-USIABP,PACEX2,North
2018-09-12T01:29:16Z,1536715757,2018,1,30,255.062,255.062,81.72071,48.14941,-999.00,-3.05,-999.0,no,yes,no,300234011881340,SVP,AWI-USIABP,PACEX2,North
2018-09-12T01:59:31Z,1536717571,2018,2,0,255.083,255.083,81.76762,48.8742,-999.00,-3.1,-999.0,no,yes,no,300234011881340,SVP,AWI-USIABP,PACEX2,North
2018-09-12T02:29:45Z,1536719386,2018,2,30,255.104,255.104,81.81056,49.59644,-999.00,-3.3,-999.0,no,yes,no,300234011881340,SVP,AWI-USIABP,PACEX2,North
2018-09-12T03:00:00Z,1536721200,2018,3,0,255.125,255.125,81.85361,50.33521,-999.00,-3.25,-999.0,no,yes,no,300234011881340,SVP,AWI-USIABP,PACEX2,North
2018-09-12T03:30:14Z,1536723014,2018,3,30,255.146,255.146,81.89678,51.08022,-999.00,-3.55,-999.0,no,yes,no,300234011881340,SVP,AWI-USIABP,PACEX2,North
2018-09-12T04:00:28Z,1536724829,2018,4,0,255.167,255.167,81.94051,51.8346,-999.00,-3.6,-999.0,no,yes,no,300234011881340,SVP,AWI-USIABP,PACEX2,North
2018-09-12T04:30:43Z,1536726643,2018,4,30,255.188,255.188,81.98487,52.60071,-999.00,-3.5,-999.0,no,yes,no,300234011881340,SVP,AWI-USIABP,PACEX2,North
2018-09-12T04:59:31Z,1536728371,2018,5,0,255.208,255.208,82.0198,53.38257,-999.00,-3.35,-999.0,no,yes,no,300234011881340,SVP,AWI-USIABP,PACEX2,North
2018-09-12T05:29:45Z,1536730186,2018,5,30,255.229,255.229,82.05306,54.16172,-999.00,-3.3,-999.0,no,yes,no,300234011881340,SVP,AWI-USIABP,PACEX2,North
2018-09-12T06:00:00Z,1536732000,2018,6,0,255.25,255.25,82.08626,54.95392,-999.00,-3.25,-999.0,no,yes,no,300234011881340,SVP,AWI-USIABP,PACEX2,North
2018-09-12T06:30:14Z,1536733814,2018,6,30,255.271,255.271,82.11543,55.76048,-999.00,-3.25,-999.0,no,yes,no,300234011881340,SVP,AWI-USIABP,PACEX2,North
2018-09-12T07:00:28Z,1536735629,2018,7,0,255.292,255.292,82.13888,56.5901,-999.00,-3.15,-999.0,no,yes,no,300234011881340,SVP,AWI-USIABP,PACEX2,North
2018-09-12T07:29:16Z,1536737357,2018,7,30,255.312,255.312,82.16188,57.42727,-999.00,-3.1,-999.0,no,yes,no,300234011881340,SVP,AWI-USIABP,PACEX2,North
2018-09-12T07:59:31Z,1536739171,2018,8,0,255.333,255.333,82.18478,58.27024,-999.00,-3.1,-999.0,no,yes,no,300234011881340,SVP,AWI-USIABP,PACEX2,North
2018-09-12T08:29:45Z,1536740986,2018,8,30,255.354,255.354,82.207,59.08411,-999.00,-3.3,-999.0,no,yes,no,300234011881340,SVP,AWI-USIABP,PACEX2,North
2018-09-12T09:00:00Z,1536742800,2018,9,0,255.375,255.375,82.2298,59.92383,-999.00,-3.4,-999.0,no,yes,no,300234011881340,SVP,AWI-USIABP,PACEX2,North
2018-09-12T09:30:14Z,1536744614,2018,9,30,255.396,255.396,82.25293,60.77131,-999.00,-3.35,-999.0,no,yes,no,300234011881340,SVP,AWI-USIABP,PACEX2,North
2018-09-12T10:00:28Z,1536746429,2018,10,0,255.417,255.417,82.27603,61.6235,-999.00,-3.45,-999.0,no,yes,no,300234011881340,SVP,AWI-USIABP,PACEX2,North
2018-09-12T10:30:43Z,1536748243,2018,10,30,255.438,255.438,82.29955,62.47888,-999.00,-3.45,-999.0,no,yes,no,300234011881340,SVP,AWI-USIABP,PACEX2,North
2018-09-12T10:59:31Z,1536749971,2018,11,0,255.458,255.458,82.32233,63.33382,-999.00,-3.45,-999.0,no,yes,no,300234011881340,SVP,AWI-USIABP,PACEX2,North
2018-09-12T11:29:45Z,1536751786,2018,11,30,255.479,255.479,82.32433,64.12469,-999.00,-3.3,-999.0,no,yes,no,300234011881340,SVP,AWI-USIABP,PACEX2,North
2018-09-12T12:00:00Z,1536753600,2018,12,0,255.5,255.5,82.35949,64.94222,-999.00,-3.45,-999.0,no,yes,no,300234011881340,SVP,AWI-USIABP,PACEX2,North
2018-09-12T12:30:14Z,1536755414,2018,12,30,255.521,255.521,82.38823,65.79365,-999.00,-3.5,-999.0,no,yes,no,300234011881340,SVP,AWI-USIABP,PACEX2,North
2018-09-12T13:00:28Z,1536757229,2018,13,0,255.542,255.542,82.41135,66.65407,-999.00,-3.45,-999.0,no,yes,no,300234011881340,SVP,AWI-USIABP,PACEX2,North
2018-09-12T13:29:16Z,1536758957,2018,13,30,255.562,255.562,82.43403,67.51991,-999.00,-3.5,-999.0,no,yes,no,300234011881340,SVP,AWI-USIABP,PACEX2,North
2018-09-12T13:59:31Z,1536760771,2018,14,0,255.583,255.583,82.45744,68.39413,-999.00,-3.75,-999.0,no,yes,no,300234011881340,SVP,AWI-USIABP,PACEX2,North
2018-09-12T14:29:45Z,1536762586,2018,14,30,255.604,255.604,82.48007,69.24208,-999.00,-3.8,-999.0,no,yes,no,300234011881340,SVP,AWI-USIABP,PACEX2,North
2018-09-12T15:00:00Z,1536764400,2018,15,0,255.625,255.625,82.48937,69.79516,-999.00,-3.7,-999.0,no,yes,no,300234011881340,SVP,AWI-USIABP,PACEX2,North
2018-09-12T15:30:14Z,1536766214,2018,15,30,255.646,255.646,82.49014,70.25802,-999.00,-3.45,-999.0,no,yes,no,300234011881340,SVP,AWI-USIABP,PACEX2,North
2018-09-12T16:00:28Z,1536768029,2018,16,0,255.667,255.667,82.45521,70.95307,-999.00,-3.65,-999.0,no,yes,no,300234011881340,SVP,AWI-USIABP,PACEX2,North
2018-09-12T16:30:43Z,1536769843,2018,16,30,255.688,255.688,82.42161,71.75997,-999.00,-3.4,-999.0,no,yes,no,300234011881340,SVP,AWI-USIABP,PACEX2,North
2018-09-12T16:59:31Z,1536771571,2018,17,0,255.708,255.708,82.35008,72.27942,-999.00,-3.2,-999.0,no,yes,no,300234011881340,SVP,AWI-USIABP,PACEX2,North
2018-09-12T17:29:45Z,1536773386,2018,17,30,255.729,255.729,82.33394,73.14086,-999.00,-3.05,-999.0,no,yes,no,300234011881340,SVP,AWI-USIABP,PACEX2,North
2018-09-12T18:00:00Z,1536775200,2018,18,0,255.75,255.75,82.32102,73.89968,-999.00,-2.8,-999.0,no,yes,no,300234011881340,SVP,AWI-USIABP,PACEX2,North
2018-09-12T18:30:14Z,1536777014,2018,18,30,255.771,255.771,82.30718,74.75497,-999.00,-2.6,-999.0,no,yes,no,300234011881340,SVP,AWI-USIABP,PACEX2,North
2018-09-12T19:00:28Z,1536778829,2018,19,0,255.792,255.792,82.28112,75.58596,-999.00,-2.65,-999.0,no,yes,no,300234011881340,SVP,AWI-USIABP,PACEX2,North
2018-09-12T19:29:16Z,1536780557,2018,19,30,255.812,255.812,82.25182,76.22344,-999.00,-2.65,-999.0,no,yes,no,300234011881340,SVP,AWI-USIABP,PACEX2,North
2018-09-12T19:59:31Z,1536782371,2018,20,0,255.833,255.833,82.24521,77.08861,-999.00,-2.45,-999.0,no,yes,no,300234011881340,SVP,AWI-USIABP,PACEX2,North
2018-09-12T20:29:45Z,1536784186,2018,20,30,255.854,255.854,82.2162,77.889,-999.00,-2.3,-999.0,no,yes,no,300234011881340,SVP,AWI-USIABP,PACEX2,North
2018-09-12T21:00:00Z,1536786000,2018,21,0,255.875,255.875,82.18677,78.69628,-999.00,-2.25,-999.0,no,yes,no,300234011881340,SVP,AWI-USIABP,PACEX2,North
2018-09-12T21:30:14Z,1536787814,2018,21,30,255.896,255.896,82.15695,79.50697,-999.00,-2.25,-999.0,no,yes,no,300234011881340,SVP,AWI-USIABP,PACEX2,North
2018-09-12T22:00:28Z,1536789629,2018,22,0,255.917,255.917,82.12779,80.31421,-999.00,-2.2,-999.0,no,yes,no,300234011881340,SVP,AWI-USIABP,PACEX2,North
2018-09-12T22:30:43Z,1536791443,2018,22,30,255.938,255.938,82.09775,81.10539,-999.00,-2.2,-999.0,no,yes,no,300234011881340,SVP,AWI-USIABP,PACEX2,North
2018-09-12T22:59:31Z,1536793171,2018,23,0,255.958,255.958,82.06816,81.90052,-999.00,-2.3,-999.0,no,yes,no,300234011881340,SVP,AWI-USIABP,PACEX2,North
2018-09-12T23:29:45Z,1536794986,2018,23,30,255.979,255.979,82.0388,82.67851,-999.00,-2.3,-999.0,no,yes,no,300234011881340,SVP,AWI-USIABP,PACEX2,North
2018-09-13T00:00:00Z,1536796800,2018,0,0,256.0,256.0,82.00924,83.47208,-999.00,-2.35,-999.0,no,yes,no,300234011881340,SVP,AWI-USIABP,PACEX2,North
2018-09-13T00:30:14Z,1536798614,2018,0,30,256.021,256.021,81.97952,84.26051,-999.00,-2.05,-999.0,no,yes,no,300234011881340,SVP,AWI-USIABP,PACEX2,North
2018-09-13T01:00:28Z,1536800429,2018,1,0,256.042,256.042,81.95023,85.03484,-999.00,-2.5,-999.0,no,yes,no,300234011881340,SVP,AWI-USIABP,PACEX2,North
2018-09-13T01:29:16Z,1536802157,2018,1,30,256.062,256.062,81.92104,85.80409,-999.00,-2.85,-999.0,no,yes,no,300234011881340,SVP,AWI-USIABP,PACEX2,North
2018-09-13T01:59:31Z,1536803971,2018,2,0,256.083,256.083,81.89062,86.59712,-999.00,-3.05,-999.0,no,yes,no,300234011881340,SVP,AWI-USIABP,PACEX2,North
2018-09-13T02:29:45Z,1536805786,2018,2,30,256.104,256.104,81.86117,87.3666,-999.00,-2.9,-999.0,no,yes,no,300234011881340,SVP,AWI-USIABP,PACEX2,North
2018-09-13T03:00:00Z,1536807600,2018,3,0,256.125,256.125,81.83142,88.14676,-999.00,-3.1,-999.0,no,yes,no,300234011881340,SVP,AWI-USIABP,PACEX2,North
2018-09-13T03:30:14Z,1536809414,2018,3,30,256.146,256.146,81.80143,88.9301,-999.00,-3.5,-999.0,no,yes,no,300234011881340,SVP,AWI-USIABP,PACEX2,North
2018-09-13T04:00:28Z,1536811229,2018,4,0,256.167,256.167,81.77098,89.71143,-999.00,-3.45,-999.0,no,yes,no,300234011881340,SVP,AWI-USIABP,PACEX2,North
2018-09-13T04:30:43Z,1536813043,2018,4,30,256.188,256.188,81.74138,90.47577,-999.00,-3.1,-999.0,no,yes,no,300234011881340,SVP,AWI-USIABP,PACEX2,North
2018-09-13T04:59:31Z,1536814771,2018,5,0,256.208,256.208,81.72071,91.01497,-999.00,-2.95,-999.0,no,yes,no,300234011881340,SVP,AWI-USIABP,PACEX2,North
2018-09-13T06:30:14Z,1536820214,2018,6,30,256.271,256.271,81.64423,92.96943,-999.00,-2.55,-999.0,no,yes,no,300234011881340,SVP,AWI-USIABP,PACEX2,North
2018-09-13T07:00:28Z,1536822029,2018,7,0,256.292,256.292,81.61786,93.63624,-999.00,-2.95,-999.0,no,yes,no,300234011881340,SVP,AWI-USIABP,PACEX2,North
2018-09-13T07:29:16Z,1536823757,2018,7,30,256.312,256.312,81.59635,94.1759,-999.00,-2.9,-999.0,no,yes,no,300234011881340,SVP,AWI-USIABP,PACEX2,North
2018-09-13T07:59:31Z,1536825571,2018,8,0,256.333,256.333,81.56997,94.85172,-999.00,-2.85,-999.0,no,yes,no,300234011881340,SVP,AWI-USIABP,PACEX2,North
2018-09-13T08:29:45Z,1536827386,2018,8,30,256.354,256.354,81.54161,95.60046,-999.00,-2.8,-999.0,no,yes,no,300234011881340,SVP,AWI-USIABP,PACEX2,North
2018-09-13T09:00:00Z,1536829200,2018,9,0,256.375,256.375,81.51023,96.34631,-999.00,-2.6,-999.0,no,yes,no,300234011881340,SVP,AWI-USIABP,PACEX2,North
2018-09-13T09:30:14Z,1536831014,2018,9,30,256.396,256.396,81.47978,97.10734,-999.00,-2.4,-999.0,no,yes,no,300234011881340,SVP,AWI-USIABP,PACEX2,North
2018-09-13T10:00:28Z,1536832829,2018,10,0,256.417,256.417,81.44906,97.87724,-999.00,-2.35,-999.0,no,yes,no,300234011881340,SVP,AWI-USIABP,PACEX2,North
2018-09-13T10:30:43Z,1536834643,2018,10,30,256.438,256.438,81.41941,98.61573,-999.00,-2.2,-999.0,no,yes,no,300234011881340,SVP,AWI-USIABP,PACEX2,North
2018-09-13T10:59:31Z,1536836371,2018,11,0,256.458,256.458,81.38768,99.35291,-999.00,-2.05,-999.0,no,yes,no,300234011881340,SVP,AWI-USIABP,PACEX2,North
2018-09-13T11:29:45Z,1536838186,2018,11,30,256.479,256.479,81.35907,100.09432,-999.00,-2.05,-999.0,no,yes,no,300234011881340,SVP,AWI-USIABP,PACEX2,North
2018-09-13T12:00:00Z,1536840000,2018,12,0,256.5,256.5,81.32955,100.82456,-999.00,-1.4,-999.0,no,yes,no,300234011881340,SVP,AWI-USIABP,PACEX2,North
2018-09-13T12:30:14Z,1536841814,2018,12,30,256.521,256.521,81.29947,101.56433,-999.00,-1.4,-999.0,no,yes,no,300234011881340,SVP,AWI-USIABP,PACEX2,North
2018-09-13T13:00:28Z,1536843629,2018,13,0,256.542,256.542,81.26907,102.30581,-999.00,-1.45,-999.0,no,yes,no,300234011881340,SVP,AWI-USIABP,PACEX2,North
2018-09-13T13:29:16Z,1536845357,2018,13,30,256.562,256.562,81.23812,103.05315,-999.00,-1.55,-999.0,no,yes,no,300234011881340,SVP,AWI-USIABP,PACEX2,North
2018-09-13T13:59:31Z,1536847171,2018,14,0,256.583,256.583,81.20848,103.78023,-999.00,-1.55,-999.0,no,yes,no,300234011881340,SVP,AWI-USIABP,PACEX2,North
2018-09-13T14:29:45Z,1536848986,2018,14,30,256.604,256.604,81.17771,104.51672,-999.00,-1.55,-999.0,no,yes,no,300234011881340,SVP,AWI-USIABP,PACEX2,North
2018-09-13T15:00:00Z,1536850800,2018,15,0,256.625,256.625,81.17771,105.25646,-999.00,-1.55,-999.0,no,yes,no,300234011881340,SVP,AWI-USIABP,PACEX2,North
2018-09-13T15:30:14Z,1536852614,2018,15,30,256.646,256.646,81.2001,105.99797,-999.00,-1.55,-999.0,no,yes,no,300234011881340,SVP,AWI-USIABP,PACEX2,North
2018-09-13T16:00:28Z,1536854429,2018,16,0,256.667,256.667,81.223,106.76051,-999.00,-1.6,-999.0,no,yes,no,300234011881340,SVP,AWI-USIABP,PACEX2,North
2018-09-13T16:30:43Z,1536856243,2018,16,30,256.688,256.688,81.24538,107.5013,-999.00,-1.7,-999.0,no,yes,no,300234011881340,SVP,AWI-USIABP,PACEX2,North
2018-09-13T16:59:31Z,1536857971,2018,17,0,256.708,256.708,81.26836,108.25859,-999.00,-1.7,-999.0,no,yes,no,300234011881340,SVP,AWI-USIABP,PACEX2,North
2018-09-13T17:29:45Z,1536859786,2018,17,30,256.729,256.729,81.28443,109.01613,-999.00,-1.75,-999.0,no,yes,no,300234011881340,SVP,AWI-USIABP,PACEX2,North
2018-09-13T18:00:00Z,1536861600,2018,18,0,256.75,256.75,81.25886,109.75241,-999.00,-1.8,-999.0,no,yes,no,300234011881340,SVP,AWI-USIABP,PACEX2,North
2018-09-13T18:30:14Z,1536863414,2018,18,30,256.771,256.771,81.29618,110.1318,-999.00,-1.8,-999.0,no,yes,no,300234011881340,SVP,AWI-USIABP,PACEX2,North
2018-09-13T19:00:28Z,1536865229,2018,19,0,256.792,256.792,81.32481,110.42573,-999.00,-1.85,-999.0,no,yes,no,300234011881340,SVP,AWI-USIABP,PACEX2,North
2018-09-13T19:29:16Z,1536866957,2018,19,30,256.812,256.812,81.34172,110.76994,-999.00,-1.95,-999.0,no,yes,no,300234011881340,SVP,AWI-USIABP,PACEX2,North
2018-09-13T19:59:31Z,1536868771,2018,20,0,256.833,256.833,81.34545,111.12303,-999.00,-1.95,-999.0,no,yes,no,300234011881340,SVP,AWI-USIABP,PACEX2,North
2018-09-13T20:29:45Z,1536870586,2018,20,30,256.854,256.854,81.35895,111.49162,-999.00,-2.0,-999.0,no,yes,no,300234011881340,SVP,AWI-USIABP,PACEX2,North
2018-09-13T21:00:00Z,1536872400,2018,21,0,256.875,256.875,81.3735,111.86731,-999.00,-1.95,-999.0,no,yes,no,300234011881340,SVP,AWI-USIABP,PACEX2,North
2018-09-13T21:30:14Z,1536874214,2018,21,30,256.896,256.896,81.38809,112.28198,-999.00,-1.95,-999.0,no,yes,no,300234011881340,SVP,AWI-USIABP,PACEX2,North
2018-09-13T22:00:28Z,1536876029,2018,22,0,256.917,256.917,81.39835,112.70302,-999.00,-1.9,-999.0,no,yes,no,300234011881340,SVP,AWI-USIABP,PACEX2,North
2018-09-13T22:30:43Z,1536877843,2018,22,30,256.938,256.938,81.41112,113.14592,-999.00,-1.9,-999.0,no,yes,no,300234011881340,SVP,AWI-USIABP,PACEX2,North
2018-09-13T22:59:31Z,1536879571,2018,23,0,256.958,256.958,81.42338,113.60302,-999.00,-1.95,-999.0,no,yes,no,300234011881340,SVP,AWI-USIABP,PACEX2,North
2018-09-13T23:29:45Z,1536881386,2018,23,30,256.979,256.979,81.44121,114.0965,-999.00,-1.9,-999.0,no,yes,no,300234011881340,SVP,AWI-USIABP,PACEX2,North
2018-09-14T00:00:00Z,1536883200,2018,0,0,257.0,257.0,81.43943,114.48059,-999.00,-1.9,-999.0,no,yes,no,300234011881340,SVP,AWI-USIABP,PACEX2,North
2018-09-14T01:00:28Z,1536886829,2018,1,0,257.042,257.042,81.39263,115.18662,-999.00,-2.15,-999.0,no,yes,no,300234011881340,SVP,AWI-USIABP,PACEX2,North
2018-09-14T01:29:16Z,1536888557,2018,1,30,257.062,257.062,81.36364,115.46711,-999.00,-2.4,-999.0,no,yes,no,300234011881340,SVP,AWI-USIABP,PACEX2,North
2018-09-14T01:59:31Z,1536890371,2018,2,0,257.083,257.083,81.35973,115.83457,-999.00,-2.4,-999.0,no,yes,no,300234011881340,SVP,AWI-USIABP,PACEX2,North
2018-09-14T02:29:45Z,1536892186,2018,2,30,257.104,257.104,81.33673,116.15922,-999.00,-2.35,-999.0,no,yes,no,300234011881340,SVP,AWI-USIABP,PACEX2,North
2018-09-14T03:00:00Z,1536894000,2018,3,0,257.125,257.125,81.31318,116.52093,-999.00,-2.25,-999.0,no,yes,no,300234011881340,SVP,AWI-USIABP,PACEX2,North
2018-09-14T03:30:14Z,1536895814,2018,3,30,257.146,257.146,81.29656,116.87992,-999.00,-2.1,-999.0,no,yes,no,300234011881340,SVP,AWI-USIABP,PACEX2,North
2018-09-14T04:00:28Z,1536897629,2018,4,0,257.167,257.167,81.27442,117.23993,-999.00,-2.1,-999.0,no,yes,no,300234011881340,SVP,AWI-USIABP,PACEX2,North
2018-09-14T04:30:43Z,1536899443,2018,4,30,257.188,257.188,81.25659,117.58023,-999.00,-2.05,-999.0,no,yes,no,300234011881340,SVP,AWI-USIABP,PACEX2,North
2018-09-14T04:59:31Z,1536901171,2018,5,0,257.208,257.208,81.23484,117.92896,-999.00,-2.05,-999.0,no,yes,no,300234011881340,SVP,AWI-USIABP,PACEX2,North
2018-09-14T05:29:45Z,1536902986,2018,5,30,257.229,257.229,81.21492,118.2726,-999.00,-2.1,-999.0,no,yes,no,300234011881340,SVP,AWI-USIABP,PACEX2,North
2018-09-14T06:00:00Z,1536904800,2018,6,0,257.25,257.25,81.19652,118.62771,-999.00,-2.05,-999.0,no,yes,no,300234011881340,SVP,AWI-USIABP,PACEX2,North
2018-09-14T06:30:14Z,1536906614,2018,6,30,257.271,257.271,81.17607,118.96739,-999.00,-1.95,-999.0,no,yes,no,300234011881340,SVP,AWI-USIABP,PACEX2,North
2018-09-14T07:00:28Z,1536908429,2018,7,0,257.292,257.292,81.15548,119.32439,-999.00,-1.9,-999.0,no,yes,no,300234011881340,SVP,AWI-USIABP,PACEX2,North
2018-09-14T07:29:16Z,1536910157,2018,7,30,257.312,257.312,81.13345,119.67663,-999.00,-1.8,-999.0,no,yes,no,300234011881340,SVP,AWI-USIABP,PACEX2,North
2018-09-14T07:59:31Z,1536911971,2018,8,0,257.333,257.333,81.11103,120.03494,-999.00,-1.8,-999.0,no,yes,no,300234011881340,SVP,AWI-USIABP,PACEX2,North
2018-09-14T08:29:45Z,1536913786,2018,8,30,257.354,257.354,81.09999,120.40561,-999.00,-1.75,-999.0,no,yes,no,300234011881340,SVP,AWI-USIABP,PACEX2,North
2018-09-14T09:00:00Z,1536915600,2018,9,0,257.375,257.375,81.09826,120.67708,-999.00,-1.7,-999.0,no,yes,no,300234011881340,SVP,AWI-USIABP,PACEX2,North
2018-09-14T09:30:14Z,1536917414,2018,9,30,257.396,257.396,81.09595,120.97873,-999.00,-1.65,-999.0,no,yes,no,300234011881340,SVP,AWI-USIABP,PACEX2,North
2018-09-14T10:00:28Z,1536919229,2018,10,0,257.417,257.417,81.0934,121.35391,-999.00,-1.65,-999.0,no,yes,no,300234011881340,SVP,AWI-USIABP,PACEX2,North
2018-09-14T10:30:43Z,1536921043,2018,10,30,257.438,257.438,81.09082,121.71629,-999.00,-1.65,-999.0,no,yes,no,300234011881340,SVP,AWI-USIABP,PACEX2,North
2018-09-14T10:59:31Z,1536922771,2018,11,0,257.458,257.458,81.08821,122.10899,-999.00,-1.6,-999.0,no,yes,no,300234011881340,SVP,AWI-USIABP,PACEX2,North
2018-09-14T11:29:45Z,1536924586,2018,11,30,257.479,257.479,81.08573,122.5065,-999.00,-1.6,-999.0,no,yes,no,300234011881340,SVP,AWI-USIABP,PACEX2,North
2018-09-14T12:00:00Z,1536926400,2018,12,0,257.5,257.5,81.0828,122.90219,-999.00,-1.6,-999.0,no,yes,no,300234011881340,SVP,AWI-USIABP,PACEX2,North
2018-09-14T12:30:14Z,1536928214,2018,12,30,257.521,257.521,81.12119,123.12474,-999.00,-1.6,-999.0,no,yes,no,300234011881340,SVP,AWI-USIABP,PACEX2,North
2018-09-14T13:00:28Z,1536930029,2018,13,0,257.542,257.542,81.17431,123.27649,-999.00,-1.55,-999.0,no,yes,no,300234011881340,SVP,AWI-USIABP,PACEX2,North
2018-09-14T13:29:16Z,1536931757,2018,13,30,257.562,257.562,81.22756,123.42009,-999.00,-1.55,-999.0,no,yes,no,300234011881340,SVP,AWI-USIABP,PACEX2,North
2018-09-14T13:59:31Z,1536933571,2018,14,0,257.583,257.583,81.24353,123.47808,-999.00,-1.6,-999.0,no,yes,no,300234011881340,SVP,AWI-USIABP,PACEX2,North
2018-09-14T14:29:45Z,1536935386,2018,14,30,257.604,257.604,81.24405,123.47345,-999.00,-1.65,-999.0,no,yes,no,300234011881340,SVP,AWI-USIABP,PACEX2,North
2018-09-14T15:00:00Z,1536937200,2018,15,0,257.625,257.625,81.24433,123.48257,-999.00,-1.65,-999.0,no,yes,no,300234011881340,SVP,AWI-USIABP,PACEX2,North
2018-09-14T15:30:14Z,1536939014,2018,15,30,257.646,257.646,81.24556,123.48757,-999.00,-1.8,-999.0,no,yes,no,300234011881340,SVP,AWI-USIABP,PACEX2,North
2018-09-14T16:00:28Z,1536940829,2018,16,0,257.667,257.667,81.24502,123.48993,-999.00,-1.9,-999.0,no,yes,no,300234011881340,SVP,AWI-USIABP,PACEX2,North
2018-09-14T16:30:43Z,1536942643,2018,16,30,257.688,257.688,81.24414,123.4812,-999.00,-1.9,-999.0,no,yes,no,300234011881340,SVP,AWI-USIABP,PACEX2,North
2018-09-14T16:59:31Z,1536944371,2018,17,0,257.708,257.708,81.24391,123.48191,-999.00,-1.85,-999.0,no,yes,no,300234011881340,SVP,AWI-USIABP,PACEX2,North
2018-09-14T17:29:45Z,1536946186,2018,17,30,257.729,257.729,81.24408,123.4847,-999.00,-1.75,-999.0,no,yes,no,300234011881340,SVP,AWI-USIABP,PACEX2,North
2018-09-14T18:00:00Z,1536948000,2018,18,0,257.75,257.75,81.24395,123.49191,-999.00,-1.7,-999.0,no,yes,no,300234011881340,SVP,AWI-USIABP,PACEX2,North
2018-09-14T18:30:14Z,1536949814,2018,18,30,257.771,257.771,81.24423,123.51366,-999.00,-1.65,-999.0,no,yes,no,300234011881340,SVP,AWI-USIABP,PACEX2,North
2018-09-14T19:00:28Z,1536951629,2018,19,0,257.792,257.792,81.24381,123.53418,-999.00,-1.6,-999.0,no,yes,no,300234011881340,SVP,AWI-USIABP,PACEX2,North
2018-09-14T19:29:16Z,1536953357,2018,19,30,257.812,257.812,81.25092,123.42198,-999.00,-1.6,-999.0,no,yes,no,300234011881340,SVP,AWI-USIABP,PACEX2,North
2018-09-14T19:59:31Z,1536955171,2018,20,0,257.833,257.833,81.28895,123.10764,-999.00,-1.55,-999.0,no,yes,no,300234011881340,SVP,AWI-USIABP,PACEX2,North
2018-09-14T20:29:45Z,1536956986,2018,20,30,257.854,257.854,81.32614,122.79685,-999.00,-1.5,-999.0,no,yes,no,300234011881340,SVP,AWI-USIABP,PACEX2,North